| time (UTC) | temp F | wind direction | speed MPH | gust MPH | rain 1hr in | rain 24hr in | rain mn in | humidity % | barometer mb |
| 20260506092756 | 55 | 43 | 0.0 | 0.0 | 0.00 | 0.02 | 0.00 | 88 | 1007.6 |
| 20260506092308 | 55 | 45 | 0.0 | 0.0 | 0.00 | 0.02 | 0.00 | 88 | 1007.7 |
| 20260506091802 | 55 | 360 | 0.0 | 0.0 | 0.00 | 0.02 | 0.00 | 88 | 1007.7 |
| 20260506091334 | 55 | 360 | 0.0 | 0.0 | 0.00 | 0.02 | 0.00 | 87 | 1007.7 |
| 20260506090805 | 55 | 360 | 0.0 | 0.0 | 0.00 | 0.02 | 0.00 | 87 | 1007.8 |
| 20260506090255 | 55 | 360 | 0.0 | 0.0 | 0.00 | 0.02 | 0.00 | 87 | 1007.8 |
| 20260506085805 | 55 | 360 | 0.0 | 0.0 | 0.00 | 0.02 | 0.00 | 87 | 1007.8 |
| 20260506085300 | 55 | 45 | 0.0 | 0.0 | 0.00 | 0.02 | 0.00 | 86 | 1007.7 |
| 20260506084815 | 56 | 360 | 0.0 | 0.0 | 0.00 | 0.02 | 0.00 | 86 | 1007.7 |
| 20260506084302 | 56 | 360 | 0.0 | 0.0 | 0.00 | 0.02 | 0.00 | 85 | 1007.7 |
| 20260506083821 | 56 | 44 | 0.0 | 0.0 | 0.00 | 0.02 | 0.00 | 85 | 1007.8 |
| 20260506083311 | 56 | 44 | 0.0 | 0.0 | 0.00 | 0.02 | 0.00 | 84 | 1007.8 |
| 20260506082831 | 56 | 360 | 0.0 | 0.0 | 0.00 | 0.02 | 0.00 | 84 | 1007.8 |
| 20260506082328 | 56 | 360 | 0.0 | 0.0 | 0.00 | 0.02 | 0.00 | 83 | 1007.8 |
| 20260506081802 | 56 | 44 | 0.0 | 0.0 | 0.00 | 0.02 | 0.00 | 83 | 1007.8 |
| 20260506081259 | 57 | 360 | 0.0 | 0.0 | 0.00 | 0.02 | 0.00 | 83 | 1007.8 |
| 20260506080757 | 57 | 360 | 0.0 | 0.0 | 0.00 | 0.02 | 0.00 | 82 | 1007.8 |
| 20260506080302 | 57 | 360 | 0.0 | 0.0 | 0.00 | 0.02 | 0.00 | 82 | 1007.8 |
| 20260506073309 | 58 | 360 | 0.0 | 0.0 | 0.00 | 0.02 | 0.00 | 79 | 1007.8 |
| 20260506072820 | 58 | 360 | 0.0 | 0.0 | 0.00 | 0.02 | 0.00 | 79 | 1007.8 |
| 20260506072257 | 59 | 360 | 0.0 | 0.0 | 0.00 | 0.02 | 0.00 | 79 | 1007.9 |
| 20260506071752 | 59 | 360 | 0.0 | 0.0 | 0.00 | 0.02 | 0.00 | 78 | 1007.9 |
| 20260506071253 | 59 | 360 | 0.0 | 0.0 | 0.00 | 0.02 | 0.00 | 78 | 1007.9 |
| 20260506070813 | 59 | 360 | 0.0 | 0.0 | 0.00 | 0.02 | 0.00 | 78 | 1007.9 |
| 20260506070255 | 60 | 360 | 0.0 | 0.0 | 0.00 | 0.02 | 0.00 | 77 | 1007.9 |
| 20260506062315 | 61 | 360 | 0.0 | 1.0 | 0.00 | 0.02 | 0.00 | 75 | 1007.5 |
| 20260506061806 | 61 | 360 | 0.0 | 0.0 | 0.00 | 0.02 | 0.00 | 75 | 1007.5 |
| 20260506061305 | 61 | 360 | 0.0 | 1.0 | 0.00 | 0.02 | 0.00 | 74 | 1007.5 |
| 20260506060758 | 61 | 360 | 0.0 | 1.0 | 0.00 | 0.02 | 0.00 | 74 | 1007.7 |
| 20260506060321 | 61 | 360 | 0.0 | 1.0 | 0.00 | 0.02 | 0.00 | 73 | 1007.7 |
| 20260506051256 | 62 | 360 | 0.0 | 2.0 | 0.00 | 0.02 | 0.00 | 72 | 1007.9 |
| 20260506050809 | 62 | 360 | 0.0 | 2.0 | 0.00 | 0.02 | 0.00 | 71 | 1007.9 |
| 20260506050259 | 62 | 360 | 0.0 | 4.0 | 0.00 | 0.02 | 0.00 | 71 | 1007.9 |
| 20260506044809 | 63 | 360 | 0.0 | 4.0 | 0.00 | 0.02 | 0.00 | 70 | 1007.8 |
| 20260506044305 | 63 | 360 | 1.0 | 4.0 | 0.00 | 0.02 | 0.00 | 70 | 1007.8 |
| 20260506043801 | 63 | 360 | 2.0 | 3.0 | 0.00 | 0.02 | 0.00 | 70 | 1007.8 |
| 20260506043301 | 63 | 360 | 0.0 | 3.0 | 0.00 | 0.02 | 0.00 | 70 | 1007.8 |
| 20260506042756 | 63 | 360 | 1.0 | 2.0 | 0.00 | 0.02 | 0.00 | 69 | 1007.8 |
| 20260506042307 | 63 | 360 | 0.0 | 2.0 | 0.00 | 0.02 | 0.00 | 69 | 1007.8 |
| 20260506041800 | 63 | 360 | 0.0 | 3.0 | 0.00 | 0.02 | 0.00 | 69 | 1007.8 |
| 20260506041314 | 63 | 360 | 1.0 | 3.0 | 0.00 | 0.02 | 0.00 | 68 | 1007.8 |
| 20260506040811 | 63 | 360 | 0.0 | 2.0 | 0.00 | 0.02 | 0.00 | 68 | 1007.9 |
| 20260506040300 | 64 | 360 | 0.0 | 3.0 | 0.00 | 0.02 | 0.00 | 67 | 1007.9 |
| 20260506035800 | 64 | 360 | 1.0 | 3.0 | 0.00 | 0.02 | 0.02 | 67 | 1007.9 |
| 20260506035258 | 64 | 360 | 0.0 | 5.0 | 0.00 | 0.02 | 0.02 | 67 | 1007.8 |
| 20260506034813 | 64 | 360 | 2.0 | 5.0 | 0.00 | 0.02 | 0.02 | 67 | 1007.8 |
| 20260506034310 | 64 | 360 | 1.0 | 3.0 | 0.00 | 0.02 | 0.02 | 67 | 1007.8 |
| 20260506033801 | 64 | 360 | 0.0 | 4.0 | 0.00 | 0.02 | 0.02 | 67 | 1007.8 |
| 20260506033313 | 64 | 360 | 0.0 | 6.0 | 0.00 | 0.02 | 0.02 | 66 | 1007.8 |
| 20260506032831 | 65 | 360 | 1.0 | 6.0 | 0.00 | 0.02 | 0.02 | 66 | 1007.8 |
| 20260506032306 | 65 | 360 | 1.0 | 4.0 | 0.00 | 0.02 | 0.02 | 66 | 1007.8 |
| 20260506031806 | 65 | 360 | 0.0 | 5.0 | 0.00 | 0.02 | 0.02 | 66 | 1007.8 |
| 20260506031324 | 65 | 360 | 1.0 | 5.0 | 0.00 | 0.02 | 0.02 | 66 | 1007.8 |
| 20260506030755 | 65 | 360 | 0.0 | 4.0 | 0.00 | 0.02 | 0.02 | 67 | 1007.8 |
| 20260506030304 | 65 | 360 | 1.0 | 4.0 | 0.00 | 0.02 | 0.02 | 66 | 1007.8 |
| 20260506025820 | 65 | 360 | 1.0 | 3.0 | 0.00 | 0.02 | 0.02 | 66 | 1007.8 |
| 20260506025315 | 65 | 360 | 0.0 | 4.0 | 0.00 | 0.02 | 0.02 | 67 | 1007.7 |
| 20260506024807 | 65 | 360 | 1.0 | 4.0 | 0.00 | 0.02 | 0.02 | 67 | 1007.7 |
| 20260506024304 | 65 | 360 | 0.0 | 3.0 | 0.00 | 0.02 | 0.02 | 67 | 1007.7 |
| 20260506023803 | 65 | 360 | 1.0 | 3.0 | 0.00 | 0.02 | 0.02 | 67 | 1007.6 |
| 20260506023255 | 65 | 360 | 0.0 | 3.0 | 0.00 | 0.02 | 0.02 | 67 | 1007.6 |
| 20260506022809 | 65 | 360 | 0.0 | 2.0 | 0.00 | 0.02 | 0.02 | 68 | 1007.6 |
| 20260506022306 | 65 | 360 | 0.0 | 3.0 | 0.00 | 0.02 | 0.02 | 68 | 1007.7 |
| 20260506021805 | 65 | 360 | 0.0 | 3.0 | 0.00 | 0.02 | 0.02 | 68 | 1007.7 |
| 20260506021305 | 65 | 360 | 0.0 | 1.0 | 0.00 | 0.02 | 0.02 | 68 | 1007.7 |
| 20260506020803 | 65 | 360 | 0.0 | 2.0 | 0.00 | 0.02 | 0.02 | 69 | 1007.5 |
| 20260506020304 | 65 | 360 | 0.0 | 2.0 | 0.00 | 0.02 | 0.02 | 69 | 1007.5 |
| 20260506015801 | 65 | 360 | 1.0 | 4.0 | 0.00 | 0.02 | 0.02 | 69 | 1007.5 |
| 20260506015255 | 65 | 360 | 1.0 | 3.0 | 0.00 | 0.02 | 0.02 | 70 | 1007.4 |
| 20260506014805 | 65 | 360 | 0.0 | 2.0 | 0.00 | 0.02 | 0.02 | 71 | 1007.4 |
| 20260506014258 | 65 | 360 | 0.0 | 2.0 | 0.00 | 0.02 | 0.02 | 71 | 1007.4 |
| 20260506013758 | 65 | 360 | 0.0 | 3.0 | 0.00 | 0.02 | 0.02 | 71 | 1007.4 |
| 20260506013255 | 65 | 360 | 0.0 | 3.0 | 0.00 | 0.02 | 0.02 | 71 | 1007.4 |
| 20260506012756 | 65 | 360 | 0.0 | 4.0 | 0.00 | 0.02 | 0.02 | 71 | 1007.4 |
| 20260506012301 | 65 | 360 | 0.0 | 4.0 | 0.00 | 0.02 | 0.02 | 72 | 1007.2 |
| 20260506011755 | 65 | 360 | 1.0 | 4.0 | 0.00 | 0.02 | 0.02 | 73 | 1007.2 |
| 20260506011334 | 65 | 360 | 1.0 | 3.0 | 0.00 | 0.02 | 0.02 | 74 | 1007.2 |
| 20260506010801 | 65 | 360 | 0.0 | 2.0 | 0.00 | 0.02 | 0.02 | 75 | 1007.1 |
| 20260506010310 | 66 | 360 | 0.0 | 2.0 | 0.00 | 0.02 | 0.02 | 76 | 1007.1 |
| 20260506005822 | 66 | 360 | 0.0 | 1.0 | 0.00 | 0.02 | 0.02 | 77 | 1007.1 |
| 20260506005317 | 67 | 360 | 0.0 | 1.0 | 0.00 | 0.02 | 0.02 | 76 | 1007.0 |
| 20260506004828 | 67 | 360 | 0.0 | 1.0 | 0.00 | 0.02 | 0.02 | 75 | 1007.0 |
| 20260506004257 | 67 | 360 | 0.0 | 1.0 | 0.02 | 0.02 | 0.02 | 75 | 1007.0 |
| 20260506003752 | 68 | 360 | 0.0 | 0.0 | 0.02 | 0.02 | 0.02 | 74 | 1006.9 |
| 20260506003312 | 68 | 360 | 0.0 | 1.0 | 0.02 | 0.02 | 0.02 | 74 | 1006.9 |
| 20260506002830 | 69 | 360 | 0.0 | 1.0 | 0.02 | 0.02 | 0.02 | 71 | 1006.9 |
| 20260506002301 | 70 | 360 | 0.0 | 1.0 | 0.02 | 0.02 | 0.02 | 70 | 1006.9 |
| 20260506001758 | 70 | 360 | 0.0 | 0.0 | 0.02 | 0.02 | 0.02 | 69 | 1006.9 |
| 20260506001251 | 71 | 360 | 0.0 | 0.0 | 0.02 | 0.02 | 0.02 | 69 | 1006.7 |
| 20260506000806 | 72 | 360 | 0.0 | 1.0 | 0.02 | 0.02 | 0.02 | 67 | 1006.7 |
| 20260506000319 | 72 | 360 | 0.0 | 1.0 | 0.02 | 0.02 | 0.02 | 65 | 1006.7 |
| 20260505235809 | 73 | 360 | 0.0 | 4.0 | 0.02 | 0.02 | 0.02 | 64 | 1006.7 |
| 20260505235307 | 73 | 360 | 1.0 | 4.0 | 0.02 | 0.02 | 0.02 | 62 | 1006.7 |
| 20260505234802 | 74 | 360 | 1.0 | 4.0 | 0.01 | 0.01 | 0.01 | 60 | 1006.7 |
| 20260505234318 | 74 | 360 | 1.0 | 4.0 | 0.00 | 0.00 | 0.00 | 53 | 1006.7 |
| 20260505233759 | 74 | 360 | 0.0 | 6.0 | 0.00 | 0.00 | 0.00 | 51 | 1005.2 |
| 20260505233254 | 74 | 360 | 3.0 | 8.0 | 0.00 | 0.00 | 0.00 | 50 | 1005.2 |
| 20260505232809 | 74 | 360 | 2.0 | 8.0 | 0.00 | 0.00 | 0.00 | 49 | 1005.2 |
| 20260505232305 | 74 | 360 | 2.0 | 6.0 | 0.00 | 0.00 | 0.00 | 49 | 1004.5 |
| 20260505231820 | 75 | 360 | 2.0 | 7.0 | 0.00 | 0.00 | 0.00 | 48 | 1004.5 |
| 20260505231309 | 75 | 360 | 2.0 | 10.0 | 0.00 | 0.00 | 0.00 | 48 | 1004.5 |
| 20260505230824 | 75 | 360 | 4.0 | 10.0 | 0.00 | 0.00 | 0.00 | 47 | 1004.2 |
| 20260505230257 | 75 | 360 | 3.0 | 8.0 | 0.00 | 0.00 | 0.00 | 47 | 1004.2 |
| 20260505225810 | 75 | 360 | 4.0 | 8.0 | 0.00 | 0.00 | 0.00 | 47 | 1004.2 |
| 20260505225301 | 76 | 360 | 3.0 | 9.0 | 0.00 | 0.00 | 0.00 | 47 | 1004.2 |
| 20260505224759 | 76 | 360 | 2.0 | 10.0 | 0.00 | 0.00 | 0.00 | 47 | 1004.2 |
| 20260505224302 | 76 | 360 | 3.0 | 10.0 | 0.00 | 0.00 | 0.00 | 46 | 1004.2 |
| 20260505223802 | 76 | 360 | 3.0 | 7.0 | 0.00 | 0.00 | 0.00 | 46 | 1003.9 |
| 20260505223302 | 76 | 360 | 3.0 | 12.0 | 0.00 | 0.00 | 0.00 | 46 | 1003.9 |
| 20260505222831 | 77 | 360 | 4.0 | 12.0 | 0.00 | 0.00 | 0.00 | 46 | 1003.9 |
| 20260505222307 | 77 | 360 | 3.0 | 8.0 | 0.00 | 0.00 | 0.00 | 46 | 1003.7 |
| 20260505221753 | 77 | 360 | 3.0 | 13.0 | 0.00 | 0.00 | 0.00 | 45 | 1003.7 |
| 20260505221310 | 77 | 170 | 3.0 | 13.0 | 0.00 | 0.00 | 0.00 | 45 | 1003.7 |
| 20260505220805 | 78 | 209 | 4.0 | 8.0 | 0.00 | 0.00 | 0.00 | 44 | 1003.7 |
| 20260505220334 | 78 | 210 | 3.0 | 7.0 | 0.00 | 0.00 | 0.00 | 45 | 1003.7 |
| 20260505215800 | 78 | 165 | 3.0 | 7.0 | 0.00 | 0.00 | 0.00 | 45 | 1003.7 |
| 20260505215310 | 78 | 130 | 3.0 | 6.0 | 0.00 | 0.00 | 0.00 | 44 | 1003.7 |
| 20260505214756 | 78 | 218 | 3.0 | 11.0 | 0.00 | 0.00 | 0.00 | 44 | 1003.7 |
| 20260505214305 | 79 | 246 | 4.0 | 11.0 | 0.00 | 0.00 | 0.00 | 43 | 1003.7 |
| 20260505213801 | 79 | 202 | 4.0 | 9.0 | 0.00 | 0.00 | 0.00 | 42 | 1003.2 |
| 20260505213313 | 80 | 5 | 4.0 | 9.0 | 0.00 | 0.00 | 0.00 | 42 | 1003.2 |
| 20260505212812 | 80 | 236 | 3.0 | 7.0 | 0.00 | 0.00 | 0.00 | 42 | 1003.0 |
| 20260505212254 | 81 | 157 | 2.0 | 8.0 | 0.00 | 0.00 | 0.00 | 41 | 1003.0 |
| 20260505211809 | 81 | 9 | 2.0 | 10.0 | 0.00 | 0.00 | 0.00 | 41 | 1003.0 |
| 20260505211309 | 81 | 202 | 3.0 | 10.0 | 0.00 | 0.00 | 0.00 | 41 | 1003.0 |
| 20260505210802 | 81 | 211 | 3.0 | 8.0 | 0.00 | 0.00 | 0.00 | 40 | 1003.4 |
| 20260505210308 | 81 | 119 | 2.0 | 9.0 | 0.00 | 0.00 | 0.00 | 39 | 1003.4 |
| 20260505205808 | 82 | 232 | 4.0 | 9.0 | 0.00 | 0.00 | 0.00 | 39 | 1003.4 |
| 20260505205328 | 82 | 104 | 3.0 | 9.0 | 0.00 | 0.00 | 0.00 | 39 | 1003.2 |
| 20260505204808 | 82 | 211 | 3.0 | 9.0 | 0.00 | 0.00 | 0.00 | 39 | 1003.2 |
| 20260505204303 | 82 | 252 | 1.0 | 5.0 | 0.00 | 0.00 | 0.00 | 39 | 1003.2 |
| 20260505203756 | 83 | 74 | 2.0 | 9.0 | 0.00 | 0.00 | 0.00 | 37 | 1003.2 |
| 20260505203310 | 83 | 219 | 4.0 | 11.0 | 0.00 | 0.00 | 0.00 | 37 | 1003.2 |
| 20260505202828 | 83 | 243 | 4.0 | 11.0 | 0.00 | 0.00 | 0.00 | 32 | 1003.2 |
| 20260505202305 | 84 | 217 | 4.0 | 10.0 | 0.00 | 0.00 | 0.00 | 30 | 1003.2 |
| 20260505201803 | 83 | 11 | 3.0 | 9.0 | 0.00 | 0.00 | 0.00 | 30 | 1003.2 |
| 20260505201313 | 83 | 223 | 3.0 | 12.0 | 0.00 | 0.00 | 0.00 | 30 | 1003.2 |
| 20260505200804 | 84 | 242 | 5.0 | 12.0 | 0.00 | 0.00 | 0.00 | 29 | 1003.2 |
| 20260505200313 | 84 | 204 | 3.0 | 10.0 | 0.00 | 0.00 | 0.00 | 29 | 1003.2 |
| 20260505195751 | 84 | 233 | 3.0 | 9.0 | 0.00 | 0.00 | 0.00 | 29 | 1003.3 |
| 20260505195315 | 85 | 202 | 5.0 | 15.0 | 0.00 | 0.00 | 0.00 | 28 | 1003.3 |
| 20260505194834 | 85 | 219 | 6.0 | 15.0 | 0.00 | 0.00 | 0.00 | 28 | 1003.3 |
| 20260505194308 | 85 | 322 | 5.0 | 12.0 | 0.00 | 0.00 | 0.00 | 28 | 1003.3 |
| 20260505193801 | 85 | 249 | 6.0 | 13.0 | 0.00 | 0.00 | 0.00 | 29 | 1003.4 |
| 20260505193256 | 85 | 205 | 6.0 | 13.0 | 0.00 | 0.00 | 0.00 | 28 | 1003.4 |
| 20260505192809 | 85 | 220 | 4.0 | 12.0 | 0.00 | 0.00 | 0.00 | 30 | 1003.4 |
| 20260505192332 | 84 | 264 | 5.0 | 12.0 | 0.00 | 0.00 | 0.00 | 28 | 1003.7 |
| 20260505191826 | 84 | 229 | 4.0 | 13.0 | 0.00 | 0.00 | 0.00 | 29 | 1003.7 |
| 20260505191259 | 84 | 209 | 8.0 | 13.0 | 0.00 | 0.00 | 0.00 | 28 | 1003.7 |
| 20260505190820 | 84 | 200 | 6.0 | 14.0 | 0.00 | 0.00 | 0.00 | 33 | 1003.8 |
| 20260505190308 | 83 | 140 | 2.0 | 6.0 | 0.00 | 0.00 | 0.00 | 39 | 1003.8 |
| 20260505185803 | 83 | 242 | 2.0 | 9.0 | 0.00 | 0.00 | 0.00 | 39 | 1003.8 |
| 20260505185256 | 83 | 200 | 3.0 | 9.0 | 0.00 | 0.00 | 0.00 | 39 | 1003.7 |
| 20260505184805 | 82 | 171 | 3.0 | 7.0 | 0.00 | 0.00 | 0.00 | 39 | 1003.7 |
| 20260505184256 | 82 | 12 | 2.0 | 7.0 | 0.00 | 0.00 | 0.00 | 41 | 1003.7 |
| 20260505183813 | 81 | 52 | 3.0 | 7.0 | 0.00 | 0.00 | 0.00 | 43 | 1004.2 |
| 20260505183311 | 81 | 154 | 2.0 | 8.0 | 0.00 | 0.00 | 0.00 | 43 | 1004.2 |
| 20260505182807 | 80 | 225 | 3.0 | 15.0 | 0.00 | 0.00 | 0.00 | 42 | 1004.2 |
| 20260505182306 | 80 | 230 | 3.0 | 8.0 | 0.00 | 0.00 | 0.00 | 43 | 1004.3 |
| 20260505181824 | 80 | 302 | 3.0 | 7.0 | 0.00 | 0.00 | 0.00 | 43 | 1004.3 |
| 20260505181254 | 80 | 260 | 2.0 | 7.0 | 0.00 | 0.00 | 0.00 | 42 | 1004.3 |
| 20260505180759 | 80 | 196 | 2.0 | 9.0 | 0.00 | 0.00 | 0.00 | 42 | 1004.6 |
| 20260505180307 | 80 | 233 | 3.0 | 9.0 | 0.00 | 0.00 | 0.00 | 41 | 1004.6 |
| 20260505175820 | 81 | 211 | 2.0 | 11.0 | 0.00 | 0.00 | 0.00 | 41 | 1004.6 |
| 20260505175316 | 81 | 106 | 4.0 | 10.0 | 0.00 | 0.00 | 0.00 | 41 | 1004.7 |
| 20260505174752 | 81 | 239 | 2.0 | 6.0 | 0.00 | 0.00 | 0.00 | 41 | 1004.7 |
| 20260505174313 | 81 | 221 | 2.0 | 11.0 | 0.00 | 0.00 | 0.00 | 42 | 1004.7 |
| 20260505173813 | 80 | 232 | 5.0 | 11.0 | 0.00 | 0.00 | 0.00 | 41 | 1004.8 |
| 20260505173321 | 80 | 287 | 3.0 | 9.0 | 0.00 | 0.00 | 0.00 | 42 | 1004.8 |
| 20260505172832 | 80 | 337 | 3.0 | 9.0 | 0.00 | 0.00 | 0.00 | 45 | 1004.8 |
| 20260505172305 | 79 | 164 | 3.0 | 8.0 | 0.00 | 0.00 | 0.00 | 44 | 1004.9 |
| 20260505171801 | 79 | 5 | 1.0 | 6.0 | 0.00 | 0.00 | 0.00 | 44 | 1004.9 |
| 20260505171322 | 79 | 241 | 2.0 | 5.0 | 0.00 | 0.00 | 0.00 | 46 | 1004.9 |
| 20260505170811 | 79 | 283 | 3.0 | 8.0 | 0.00 | 0.00 | 0.00 | 44 | 1005.2 |
| 20260505170258 | 78 | 113 | 3.0 | 8.0 | 0.00 | 0.00 | 0.00 | 46 | 1005.2 |
| 20260505165807 | 78 | 248 | 2.0 | 8.0 | 0.00 | 0.00 | 0.00 | 46 | 1005.2 |
| 20260505165309 | 78 | 124 | 2.0 | 7.0 | 0.00 | 0.00 | 0.00 | 45 | 1005.4 |
| 20260505164807 | 78 | 10 | 3.0 | 7.0 | 0.00 | 0.00 | 0.00 | 46 | 1005.4 |
| 20260505164309 | 78 | 144 | 3.0 | 6.0 | 0.00 | 0.00 | 0.00 | 45 | 1005.4 |
| 20260505163801 | 78 | 248 | 3.0 | 9.0 | 0.00 | 0.00 | 0.00 | 45 | 1005.7 |
| 20260505163303 | 78 | 121 | 3.0 | 9.0 | 0.00 | 0.00 | 0.00 | 45 | 1005.7 |
| 20260505162813 | 78 | 199 | 3.0 | 7.0 | 0.00 | 0.00 | 0.00 | 45 | 1005.7 |
| 20260505162329 | 78 | 302 | 2.0 | 7.0 | 0.00 | 0.00 | 0.00 | 46 | 1005.8 |
| 20260505161819 | 78 | 135 | 2.0 | 10.0 | 0.00 | 0.00 | 0.00 | 46 | 1005.8 |
| 20260505161313 | 77 | 248 | 4.0 | 10.0 | 0.00 | 0.00 | 0.00 | 45 | 1005.8 |
| 20260505160809 | 77 | 259 | 3.0 | 9.0 | 0.00 | 0.00 | 0.00 | 47 | 1006.2 |
| 20260505160256 | 76 | 238 | 3.0 | 9.0 | 0.00 | 0.00 | 0.00 | 48 | 1006.2 |
| 20260505153259 | 73 | 313 | 2.0 | 5.0 | 0.00 | 0.00 | 0.00 | 52 | 1006.7 |
| 20260505152812 | 73 | 267 | 2.0 | 4.0 | 0.00 | 0.00 | 0.00 | 53 | 1006.7 |
| 20260505152305 | 72 | 262 | 2.0 | 4.0 | 0.00 | 0.00 | 0.00 | 55 | 1006.9 |
| 20260505151804 | 72 | 243 | 0.0 | 4.0 | 0.00 | 0.00 | 0.00 | 55 | 1006.9 |
| 20260505151305 | 71 | 235 | 1.0 | 4.0 | 0.00 | 0.00 | 0.00 | 57 | 1006.9 |
| 20260505150800 | 71 | 282 | 1.0 | 4.0 | 0.00 | 0.00 | 0.00 | 58 | 1007.3 |
| 20260505150310 | 70 | 250 | 2.0 | 4.0 | 0.00 | 0.00 | 0.00 | 59 | 1007.3 |
| 20260505140305 | 65 | 289 | 1.0 | 6.0 | 0.00 | 0.00 | 0.00 | 66 | 1007.9 |
| 20260505130304 | 58 | 360 | 1.0 | 5.0 | 0.00 | 0.00 | 0.00 | 77 | 1008.4 |
| 20260505124755 | 57 | 360 | 2.0 | 5.0 | 0.00 | 0.00 | 0.00 | 80 | 1008.4 |
| 20260505124305 | 56 | 360 | 2.0 | 4.0 | 0.00 | 0.00 | 0.00 | 81 | 1008.4 |
| 20260505123805 | 56 | 360 | 1.0 | 6.0 | 0.00 | 0.00 | 0.00 | 82 | 1008.4 |
| 20260505123322 | 55 | 360 | 2.0 | 6.0 | 0.00 | 0.00 | 0.00 | 83 | 1008.4 |
| 20260505122758 | 55 | 360 | 2.0 | 4.0 | 0.00 | 0.00 | 0.00 | 84 | 1008.4 |
| 20260505122308 | 54 | 360 | 1.0 | 4.0 | 0.00 | 0.00 | 0.00 | 85 | 1008.4 |
| 20260505121803 | 54 | 360 | 2.0 | 4.0 | 0.00 | 0.00 | 0.00 | 85 | 1008.4 |
| 20260505121301 | 53 | 360 | 0.0 | 4.0 | 0.00 | 0.00 | 0.00 | 85 | 1008.4 |
| 20260505120758 | 53 | 240 | 1.0 | 4.0 | 0.00 | 0.00 | 0.00 | 86 | 1008.6 |
| 20260505120308 | 53 | 183 | 1.0 | 3.0 | 0.00 | 0.00 | 0.00 | 86 | 1008.6 |
| 20260505115804 | 52 | 182 | 0.0 | 3.0 | 0.00 | 0.00 | 0.00 | 86 | 1008.6 |
| 20260505115306 | 52 | 295 | 1.0 | 3.0 | 0.00 | 0.00 | 0.00 | 86 | 1008.9 |
| 20260505114801 | 52 | 55 | 1.0 | 3.0 | 0.00 | 0.00 | 0.00 | 86 | 1008.9 |
| 20260505114304 | 52 | 63 | 0.0 | 3.0 | 0.00 | 0.00 | 0.00 | 86 | 1008.9 |
| 20260505113801 | 52 | 250 | 1.0 | 3.0 | 0.00 | 0.00 | 0.00 | 87 | 1008.6 |
| 20260505113300 | 51 | 250 | 2.0 | 4.0 | 0.00 | 0.00 | 0.00 | 87 | 1008.6 |
| 20260505112755 | 51 | 299 | 1.0 | 3.0 | 0.00 | 0.00 | 0.00 | 87 | 1008.6 |
| 20260505112330 | 51 | 360 | 1.0 | 5.0 | 0.00 | 0.00 | 0.00 | 88 | 1008.4 |
| 20260505111806 | 50 | 344 | 1.0 | 2.0 | 0.00 | 0.00 | 0.00 | 88 | 1008.4 |
| 20260505111320 | 50 | 255 | 0.0 | 3.0 | 0.00 | 0.00 | 0.00 | 88 | 1008.4 |
| 20260505110753 | 50 | 258 | 0.0 | 4.0 | 0.00 | 0.00 | 0.00 | 88 | 1008.4 |
| 20260505110304 | 50 | 254 | 1.0 | 4.0 | 0.00 | 0.00 | 0.00 | 88 | 1008.4 |
| 20260505101809 | 49 | 355 | 0.0 | 1.0 | 0.00 | 0.00 | 0.00 | 86 | 1007.9 |
| 20260505101306 | 49 | 355 | 0.0 | 1.0 | 0.00 | 0.00 | 0.00 | 86 | 1007.9 |
| 20260505100819 | 49 | 355 | 0.0 | 2.0 | 0.00 | 0.00 | 0.00 | 86 | 1007.8 |
| 20260505100307 | 49 | 355 | 0.0 | 2.0 | 0.00 | 0.00 | 0.00 | 86 | 1007.8 |
| 20260505095800 | 49 | 313 | 0.0 | 1.0 | 0.00 | 0.00 | 0.00 | 86 | 1007.8 |
| 20260505095321 | 49 | 313 | 0.0 | 0.0 | 0.00 | 0.00 | 0.00 | 86 | 1007.8 |
| 20260505094756 | 49 | 313 | 0.0 | 0.0 | 0.00 | 0.00 | 0.00 | 85 | 1007.8 |
| 20260505094252 | 49 | 313 | 0.0 | 0.0 | 0.00 | 0.00 | 0.00 | 85 | 1007.8 |
| 20260505093808 | 49 | 313 | 0.0 | 0.0 | 0.00 | 0.00 | 0.00 | 85 | 1007.8 |
| 20260505093306 | 49 | 313 | 0.0 | 1.0 | 0.00 | 0.00 | 0.00 | 85 | 1007.8 |